FENGYUN 1C DEB

Satellite information

Favourite Embed

Satellite Type and Status

DEBRISIN ORBIT

Key statistics

Satellite FENGYUN 1C DEB at a glance.

Uptime

9493

Days in orbit

Revolutions

≈ 14.1

Per day

Orbit

SSO

Sun Synchronous Orbit

Inclination

98.7

Latest

Satellite identification and parameters

Extended collection of information and parameters for FENGYUN 1C DEB.

Object identification

Identified? True

Debris? True

Object name: FENGYUN 1C DEB

International designator: 1999-025CQL

Object number (NORAD): 32094

Object ID (CCSDS): 32094

Country: PEOPLES REPUBLIC OF CHINA (PRC)

Current information (Y/N): Y

RCS size: SMALL

Orbital parameters

Period: 102.1 minutes

Inclination: 98.7313 deg

SMA: 7236.206 km

Apoapsis: 883.413 km

Periapsis: 832.73 km

RAAN: 118.9406 deg

Eccentricy: 0.0035021

Argument of periapsis: 182.3988 deg

Mean anomaly: 177.7021 deg

Mean motion: 14.10380637 rev/day

Mean motion (dot): 0.00001042 rev/day2

B* drag term: 0.00060703 1/REarth

Two-line elements (TLE)

Creation date: May 2, 2025, 7:06 a.m.

Reference frame: TEME

Reference center: EARTH

Epoch: May 2, 2025, 6:20 a.m. UTC

TLE line 0: 0 FENGYUN 1C DEB

TLE line 1: 1 32094U 99025CQL 25122.26408645 .00001042 00000-0 60703-3 0 9996

TLE line 2: 2 32094 98.7313 118.9406 0035021 182.3988 177.7021 14.10380637914620

Live tracking on map

Real-time ground track for satellite FENGYUN 1C DEB.

In-orbit conjunctions

A list of the most updated potential collisions computed for object FENGYUN 1C DEB.

Target Orbit TCA Probability of collision Miss distance Type
OBJECT A LEO 2025-02-21 01:15:17 0.0004751032 176.0 (m) UNKNOWN
METEOR 1-17 DEB LEO 2024-11-13 19:20:46 0.0002274527 913.0 (m) DEBRIS

Associated space launch

Chinese polar orbiting meteorological satellite

FENGYUN 1C DEB was lifted into orbit during the mission ‘Long March 4B | Feng Yun 1C’, on board a Long March 4B space rocket.

The launch took place on May 10, 1999, 1:33 a.m. from Launch Complex 7.

For more information about the launch, click the button.

Launch to space Long March 4B | Feng Yun 1C
Long March 4B | Feng Yun 1C

Agency: N/A

Status: Launch Successful

Launch date: May 10, 1999, 1:33 a.m. UTC

Rocket: Long March 4B

Launch pad: Launch Complex 7

Location: Taiyuan Satellite Launch Center, People's Republic of China

...

Latest news about this satellite

There are no fresh news available about this satellite. Check back as we update our databases every day.


Newsletter sign-up

Weekly statistics, charts and insights to help you stay on top of the space industry.